FW6146 Weather Reports


Display with metric or nautical units.
time (UTC)temp
F
wind
direction
speed
MPH
gust
MPH
rain 1hr
in
rain 24hr
in
rain mn
in
humidity
%
barometer
mb
20260906031159 62 0.0 0.0 0.00 0.00 0.00 86 1012.1
20260906030218 62 0.0 0.0 0.00 0.00 0.00 85 1012.3
20260906025204 63 0.0 0.0 0.00 0.00 0.00 86 1012.3
20260906024224 63 0.0 0.0 0.00 0.00 0.00 86 1012.4
20260906023210 63 0.0 0.0 0.00 0.00 0.00 85 1012.5
20260906022216 63 0.0 0.0 0.00 0.00 0.00 85 1012.4
20260906021216 63 0.0 0.0 0.00 0.00 0.00 85 1012.2
20260906020202 63 0.0 0.0 0.00 0.00 0.00 85 1012.3
20260906015221 63 0.0 0.0 0.00 0.00 0.00 85 1012.3
20260906014228 63 0.0 0.0 0.00 0.00 0.00 85 1012.4
20260906013227 63 0.0 0.0 0.00 0.00 0.00 86 1012.3
20260906012214 63 0.0 0.0 0.00 0.00 0.00 86 1012.3
20260906011200 63 0.0 0.0 0.00 0.00 0.00 85 1012.4
20260906010219 63 0.0 0.0 0.00 0.00 0.00 85 1012.2
20260906005205 63 0.0 0.0 0.00 0.00 0.00 85 1012.3
20260906004225 63 0.0 0.0 0.00 0.00 0.00 85 1012.1
20260906003231 63 0.0 0.0 0.00 0.00 0.00 85 1011.9
20260906002230 63 0.0 0.0 0.00 0.00 0.00 85 1011.8
20260906001216 64 0.0 0.0 0.00 0.00 0.00 85 1011.9
20260906000149 64 0.0 0.0 0.00 0.00 0.00 84 1011.6
20260905235115 64 0.0 0.0 0.00 0.00 0.00 83 1011.6
20260905234102 64 0.0 0.0 0.00 0.00 0.00 84 1011.7
20260905233141 64 0.0 0.0 0.00 0.00 0.00 83 1011.6
20260905232107 64 0.0 0.0 0.00 0.00 0.00 82 1011.6
20260905231127 64 0.0 0.0 0.00 0.00 0.00 82 1011.4
20260905230113 65 0.0 0.0 0.00 0.00 0.00 81 1011.2
20260905225213 65 0.0 0.0 0.00 0.00 0.00 80 1011.3
20260905224139 65 0.0 0.0 0.00 0.00 0.00 80 1011.4
20260905223106 65 0.0 0.0 0.00 0.00 0.00 80 1011.4
20260905222125 65 0.0 0.0 0.00 0.00 0.00 80 1011.4
20260905221110 65 301 0.0 1.0 0.00 0.00 0.00 81 1011.3
20260905220130 66 0.0 1.0 0.00 0.00 0.00 81 1011.3
20260905215116 66 308 2.0 5.0 0.00 0.00 0.00 82 1011.0
20260905214136 66 0.0 1.0 0.00 0.00 0.00 82 1010.9
20260905213122 66 0.0 0.0 0.00 0.00 0.00 82 1010.8
20260905212108 66 0.0 0.0 0.00 0.00 0.00 81 1010.9
20260905211128 67 0.0 0.0 0.00 0.00 0.00 79 1010.8
20260905210134 67 0.0 2.0 0.00 0.00 0.00 78 1010.9
20260905205134 68 322 2.0 3.0 0.00 0.00 0.00 78 1010.7
20260905204121 68 275 1.0 1.0 0.00 0.00 0.00 79 1010.7
20260905203140 68 0.0 1.0 0.00 0.00 0.00 80 1010.7
20260905202125 68 297 0.0 1.0 0.00 0.00 0.00 78 1010.4
20260905201111 69 352 1.0 3.0 0.00 0.00 0.00 76 1010.2
20260905200151 69 0.0 1.0 0.00 0.00 0.00 77 1010.1
20260905195117 69 0.0 1.0 0.00 0.00 0.00 77 1010.0
20260905194137 70 281 0.0 2.0 0.00 0.00 0.00 76 1010.0
20260905193122 70 0.0 0.0 0.00 0.00 0.00 75 1010.2
20260905192141 69 25 0.0 2.0 0.00 0.00 0.00 76 1010.3
20260905191128 69 308 1.0 2.0 0.00 0.00 0.00 77 1010.1
20260905190114 68 321 1.0 3.0 0.00 0.00 0.00 77 1010.1
20260905185153 68 0.0 0.0 0.00 0.00 0.00 79 1010.3
20260905184119 67 291 0.0 2.0 0.00 0.00 0.00 82 1010.2
20260905183139 67 284 0.0 1.0 0.00 0.00 0.00 83 1010.3
20260905182125 68 0.0 0.0 0.00 0.00 0.00 82 1010.4
20260905181145 69 335 0.0 1.0 0.00 0.00 0.00 79 1010.3
20260905180151 70 295 1.0 3.0 0.00 0.00 0.00 79 1010.2
20260905175137 69 2 1.0 1.0 0.00 0.00 0.00 79 1010.1
20260905174136 69 310 1.0 1.0 0.00 0.00 0.00 79 1009.9
20260905173123 70 0.0 2.0 0.00 0.00 0.00 78 1009.8
20260905172142 69 0.0 0.0 0.00 0.00 0.00 79 1009.9
20260905171129 70 0.0 0.0 0.00 0.00 0.00 79 1009.6
20260905170148 69 316 1.0 2.0 0.00 0.00 0.00 80 1009.9
20260905165135 68 294 0.0 1.0 0.00 0.00 0.00 81 1009.7
20260905164121 68 0.0 0.0 0.00 0.00 0.00 81 1009.5
20260905163140 68 10 0.0 1.0 0.00 0.00 0.00 80 1009.8
20260905162147 68 0.0 1.0 0.00 0.00 0.00 80 1009.7
20260905161146 68 0.0 1.0 0.00 0.00 0.00 80 1009.6
20260905160133 69 340 0.0 1.0 0.00 0.00 0.00 79 1009.5
20260905155118 69 0.0 0.0 0.00 0.00 0.00 80 1009.7
20260905154138 69 0.0 1.0 0.00 0.00 0.00 78 1009.4
20260905153124 70 0.0 1.0 0.00 0.00 0.00 78 1009.5
20260905152143 70 298 0.0 1.0 0.00 0.00 0.00 77 1009.5
20260905151149 71 357 1.0 1.0 0.00 0.00 0.00 77 1009.4
20260905150148 70 277 1.0 1.0 0.00 0.00 0.00 77 1009.3
20260905145135 70 316 0.0 2.0 0.00 0.00 0.00 78 1009.3
20260905144121 70 328 1.0 1.0 0.00 0.00 0.00 77 1009.3
20260905143140 71 0.0 1.0 0.00 0.00 0.00 76 1009.1
20260905142126 70 0.0 1.0 0.00 0.00 0.00 78 1009.2
20260905141146 70 0.0 1.0 0.00 0.00 0.00 79 1009.3
20260905140132 69 0.0 1.0 0.00 0.00 0.00 79 1009.3
20260905135151 69 0.0 0.0 0.00 0.00 0.00 79 1009.6
20260905134137 69 306 1.0 1.0 0.00 0.00 0.00 79 1009.4
20260905133123 69 306 0.0 2.0 0.00 0.00 0.00 80 1009.3
20260905132143 68 292 1.0 3.0 0.00 0.00 0.00 79 1009.4
20260905131129 68 0.0 1.0 0.00 0.00 0.00 80 1009.2
20260905130209 67 357 0.0 1.0 0.00 0.00 0.00 83 1009.1
20260905125155 66 0.0 0.0 0.00 0.00 0.00 83 1009.2
20260905124154 66 295 0.0 3.0 0.00 0.00 0.00 83 1009.1
20260905123141 65 253 1.0 2.0 0.00 0.00 0.00 85 1009.0
20260905122127 64 254 0.0 1.0 0.00 0.00 0.00 86 1008.9
20260905121146 63 0.0 0.0 0.00 0.00 0.00 87 1008.9
20260905120132 63 0.0 0.0 0.00 0.00 0.00 88 1008.7
20260905115152 62 0.0 0.0 0.00 0.00 0.00 90 1008.8
20260905114138 61 0.0 0.0 0.00 0.00 0.00 91 1008.6
20260905113157 61 0.0 0.0 0.00 0.00 0.00 91 1008.7
20260905112204 61 0.0 0.0 0.00 0.00 0.00 92 1008.5
20260905111150 60 0.0 0.0 0.00 0.00 0.00 92 1008.5
20260905110149 60 0.0 0.0 0.00 0.00 0.00 92 1008.4
20260905105135 60 0.0 0.0 0.00 0.00 0.00 91 1008.2
20260905104154 60 0.0 0.0 0.00 0.00 0.00 91 1008.2
20260905103141 60 0.0 0.0 0.00 0.00 0.00 92 1008.2
20260905102200 60 0.0 0.0 0.00 0.00 0.00 92 1008.2
20260905101146 60 0.0 0.0 0.00 0.00 0.00 91 1008.3
20260905100153 60 0.0 0.0 0.00 0.00 0.00 91 1008.1
20260905095332 60 0.0 0.0 0.00 0.00 0.00 91 1008.1
20260905094139 61 0.0 0.0 0.00 0.00 0.00 90 1008.1
20260905093218 60 0.0 0.0 0.00 0.00 0.00 91 1008.0
20260905092144 60 0.0 0.0 0.00 0.00 0.00 90 1008.1
20260905091203 61 0.0 0.0 0.00 0.00 0.00 91 1008.0
20260905090149 61 0.0 0.0 0.00 0.00 0.00 91 1008.0
20260905085156 61 0.0 0.0 0.00 0.00 0.00 90 1008.0
20260905084155 61 0.0 0.0 0.00 0.00 0.00 90 1007.8
20260905083142 62 0.0 0.0 0.00 0.00 0.00 89 1007.9
20260905082201 62 0.0 0.0 0.00 0.00 0.00 88 1008.0
20260905081147 62 0.0 0.0 0.00 0.00 0.00 88 1007.8
20260905080133 62 0.0 0.0 0.00 0.00 0.00 89 1007.9
20260905075153 62 0.0 0.0 0.00 0.00 0.00 89 1007.9
20260905074138 62 0.0 0.0 0.00 0.00 0.00 89 1007.9
20260905073158 62 0.0 0.0 0.00 0.00 0.00 87 1007.9
20260905072144 63 0.0 0.0 0.00 0.00 0.00 87 1007.9
20260905071150 62 0.0 0.0 0.00 0.00 0.00 87 1007.9
20260905070150 62 0.0 0.0 0.00 0.00 0.00 87 1008.2
20260905065155 62 0.0 0.0 0.00 0.00 0.00 87 1008.3
20260905064155 62 0.0 0.0 0.00 0.00 0.00 87 1008.3
20260905063141 63 0.0 0.0 0.00 0.00 0.00 86 1008.4
20260905062200 63 0.0 0.0 0.00 0.00 0.00 86 1008.5
20260905061147 63 0.0 0.0 0.00 0.00 0.00 86 1008.7
20260905060133 63 0.0 0.0 0.00 0.00 0.00 86 1008.7
20260905055152 64 0.0 0.0 0.00 0.00 0.00 86 1008.6
20260905054138 64 0.0 0.0 0.00 0.00 0.00 85 1008.6
20260905053158 64 0.0 0.0 0.00 0.00 0.00 85 1008.6
20260905052244 65 0.0 0.0 0.00 0.00 0.00 85 1008.5
20260905051203 64 0.0 0.0 0.00 0.00 0.00 85 1008.5
20260905050149 64 0.0 0.0 0.00 0.00 0.00 84 1008.6
20260905045216 64 0.0 0.0 0.00 0.00 0.00 85 1008.4
20260905044155 65 0.0 0.0 0.00 0.00 0.00 84 1008.6
20260905043141 65 0.0 0.0 0.00 0.00 0.00 85 1008.5
20260905042200 65 0.0 0.0 0.00 0.00 0.00 85 1008.7
20260905041147 66 0.0 0.0 0.00 0.00 0.00 84 1008.6
20260905040205 66 0.0 0.0 0.00 0.00 0.00 84 1008.5
20260905035232 66 0.0 0.0 0.00 0.00 0.00 82 1008.4
20260905034137 66 0.0 0.0 0.00 0.00 0.00 82 1008.4
20260905033316 67 0.0 0.0 0.00 0.00 0.00 82 1008.5
20260905032142 67 0.0 0.0 0.00 0.00 0.00 82 1008.5